Tracking 26492 objects as of 8-Dec-2022
HD Live streaming from Space Station
objects crossing your sky now

STARLINK-5135

Track STARLINK-5135 now!
10-day predictions
STARLINK-5135 is classified as:


NORAD ID: 54005
Int'l Code: 2022-125AT
Perigee: 527.7 km
Apogee: 529.5 km
Inclination: 53.2 °
Period: 95.1 minutes
Semi major axis: 6899 km
RCS: Unknown
Launch date: October 5, 2022
Source: United States (US)
Launch site: AIR FORCE WESTERN TEST RANGE (AFWTR)
aabbcc
Your satellite tracking list
Your tracking list is empty




NASA's NSSDC Master Catalog

Two Line Element Set (TLE):
1 54005U 22125AT  22341.91667824 -.01199064  00000-0 -69446-1 0  9993
2 54005  53.2169 146.0084 0001300  73.6090 240.8943 15.14847589  1300
Source of the keplerian elements: AFSPC